Siloam Springs, AR

7:54 AM CST on January 16, 2018 (GMT -0600)
Smith

Weather History for KSLG - November, 2012

Change the Weather History Date:

Wednesday, November 7, 2012

  Actual Average Record
Temperature  
Mean Temperature - -  
Max Temperature - 57 °F 80 °F (2005)
Min Temperature - 41 °F 28 °F (2007)
Moisture  
Dew Point -    
Average Humidity    
Maximum Humidity    
Minimum Humidity    
Precipitation  
Precipitation 0.00 in - - ()
Sea Level Pressure  
Sea Level Pressure 30.14 in    
Wind  
Wind Speed 3 mph (NNW)    
Max Wind Speed 16 mph    
Max Gust Speed 21 mph    
Visibility 10 miles    
Events      
Averages and records for this station are not official NWS values.
T = Trace of Precipitation, MM = Missing Value Source: NWS Daily Summary

Daily Weather History Graph

Daily Weather History Graph

Search for Another Location

Airport or City:

Trip Planner

Search our weather history database for the weather conditions in past years. The results will help you decide how hot, cold, wet, or windy it might be!

Date:

Astronomy

Nov. 07, 2012 Rise Set
Actual Time 6:47 AM CST 5:15 PM CST
Civil Twilight 6:20 AM CST 5:42 PM CST
Nautical Twilight 5:49 AM CST 6:13 PM CST
Astronomical Twilight 5:19 AM CST 6:43 PM CST
Moon No Moon Rise 1:14 PM CST (11/7)
Length of Visible Light 11h 22m
Length of Day
10h 28m
Last Quarter, 43% of the Moon is Illuminated
Nov 7
Last Quarter
Nov 13
New
Nov 20
First Quarter
Nov 28
Full
Dec 6
Last Quarter

Hourly Weather History & Observations

Time (CST) Temp. Dew Point Humidity Pressure Visibility Wind Dir Wind Speed Gust Speed Precip Events Conditions
12:15 AM - - N/A% 30.10 in 10.0 mi Calm Calm - N/A   Clear
12:35 AM - - N/A% 30.10 in 10.0 mi Calm Calm - N/A   Clear
12:55 AM - - N/A% 30.10 in 10.0 mi Calm Calm - N/A   Clear
1:15 AM - - N/A% 30.09 in 10.0 mi Calm Calm - N/A   Clear
1:35 AM - - N/A% 30.10 in 10.0 mi Calm Calm - N/A   Clear
2:55 AM - - N/A% 30.11 in 10.0 mi WNW 3.5 mph - N/A   Clear
3:16 AM - - N/A% 30.11 in 10.0 mi Calm Calm - N/A   Clear
3:35 AM - - N/A% 30.11 in 10.0 mi Calm Calm - N/A   Clear
3:55 AM - - N/A% 30.12 in 10.0 mi WNW 3.5 mph - N/A   Clear
4:15 AM - - N/A% 30.12 in 10.0 mi Calm Calm - N/A   Clear
4:35 AM - - N/A% 30.13 in 10.0 mi West 4.6 mph - N/A   Clear
4:55 AM - - N/A% 30.13 in 10.0 mi Calm Calm - N/A   Clear
5:16 AM - - N/A% 30.13 in 10.0 mi Calm Calm - N/A   Clear
5:35 AM - - N/A% 30.14 in 10.0 mi Calm Calm - N/A   Clear
5:55 AM - - N/A% 30.14 in 10.0 mi WNW 3.5 mph - N/A   Clear
6:15 AM - - N/A% 30.15 in 10.0 mi Calm Calm - N/A   Clear
6:16 AM - - N/A% 30.15 in 10.0 mi Calm Calm - N/A   Clear
6:35 AM - - N/A% 30.15 in 10.0 mi NW 3.5 mph - N/A   Clear
6:55 AM - - N/A% 30.15 in 10.0 mi Calm Calm - N/A   Clear
7:16 AM - - N/A% 30.16 in 10.0 mi Calm Calm - N/A   Clear
7:35 AM - - N/A% 30.17 in 10.0 mi Calm Calm - N/A   Clear
7:55 AM - - N/A% 30.18 in 10.0 mi Calm Calm - N/A   Clear
8:16 AM - - N/A% 30.18 in 10.0 mi Calm Calm - N/A   Clear
8:35 AM - - N/A% 30.18 in 10.0 mi NW 4.6 mph - N/A   Clear
8:55 AM - - N/A% 30.18 in 10.0 mi NW 6.9 mph - N/A   Clear
9:15 AM - - N/A% 30.18 in 10.0 mi NNW 8.1 mph - N/A   Clear
9:55 AM - - N/A% 30.19 in 10.0 mi NNW 5.8 mph - N/A   Clear
10:35 AM - - N/A% 30.19 in 10.0 mi NW 10.4 mph - N/A   Clear
10:55 AM - - N/A% 30.18 in 10.0 mi NW 12.7 mph 18.4 mph N/A   Clear
11:15 AM - - N/A% 30.18 in 10.0 mi NW 16.1 mph - N/A   Clear
11:35 AM - - N/A% 30.17 in 10.0 mi NNW 11.5 mph 20.7 mph N/A   Clear
11:55 AM - - N/A% 30.16 in 10.0 mi NNW 13.8 mph - N/A   Clear
12:15 PM - - N/A% 30.16 in 10.0 mi North 15.0 mph 20.7 mph N/A   Clear
12:55 PM - - N/A% 30.14 in 10.0 mi North 12.7 mph - N/A   Clear
1:15 PM - - N/A% 30.14 in 10.0 mi NW 11.5 mph 16.1 mph N/A   Clear
1:55 PM - - N/A% 30.13 in 10.0 mi NNW 11.5 mph 17.3 mph N/A   Clear
2:15 PM - - N/A% 30.12 in 10.0 mi NW 10.4 mph - N/A   Clear
2:55 PM - - N/A% 30.12 in 10.0 mi NNW 9.2 mph - N/A   Clear
3:15 PM - - N/A% 30.12 in 10.0 mi NNW 9.2 mph - N/A   Clear
3:55 PM - - N/A% 30.12 in 10.0 mi NNW 8.1 mph - N/A   Clear
4:15 PM - - N/A% 30.12 in 10.0 mi NNW 5.8 mph - N/A   Clear
4:35 PM - - N/A% 30.12 in 10.0 mi NNW 5.8 mph - N/A   Clear
4:56 PM - - N/A% 30.12 in 10.0 mi NNW 5.8 mph - N/A   Clear
5:15 PM - - N/A% 30.11 in 10.0 mi Calm Calm - N/A   Clear
5:35 PM - - N/A% 30.11 in 10.0 mi Calm Calm - N/A   Clear
6:15 PM - - N/A% 30.13 in 10.0 mi Calm Calm - N/A   Clear
6:55 PM - - N/A% 30.13 in 10.0 mi Calm Calm - N/A   Clear
8:35 PM - - N/A% 30.13 in 10.0 mi East 3.5 mph - N/A   Clear
8:55 PM - - N/A% 30.13 in 10.0 mi East 4.6 mph - N/A   Clear
9:15 PM - - N/A% 30.14 in 10.0 mi Calm Calm - N/A   Clear
9:55 PM - - N/A% 30.13 in 10.0 mi East 4.6 mph - N/A   Clear
10:15 PM - - N/A% 30.13 in 10.0 mi East 5.8 mph - N/A   Clear
11:15 PM - - N/A% 30.13 in 10.0 mi East 5.8 mph - N/A   Clear
11:55 PM - - N/A% 30.13 in 10.0 mi East 4.6 mph - N/A   Clear